Home > Time Zones > World Clock > Weather > Togo > Lome > Past weeks

Flag for Togo Weather past 2 weeks in Lome, Togo

Now
82 °F

Passing clouds.


Feels Like: 92 °F
Forecast: 77 / 91 °F
Wind: 9 mph from Southwest

Location: Lome Airport

Current Time: Jan 27, 2015 at 1:25:11 AM

Latest Report: Jan 27, 2015 at 12:00 AM


Visibility: N/A

Pressure: 29.89 "Hg

Humidity: 89%

Dew point: 79 °F

Location of LomeLocation

Historic Weather in Lome — Graph

°F

Lome temperature yesterday

Maximum temperature yesterday: 90 °F (at 11:00 AM)
Minimum temperature yesterday: 81 °F (at 1:00 AM)
Average temperature yesterday: 84 °F

Past Weeks' High & Low Weather Summary

 TemperatureHumidityPressure
High90 °F (Jan 12, 1:00 PM)100% (Jan 16, 7:00 AM)30.01 "Hg (Jan 16, 7:00 AM)
Low66 °F (Jan 13, 6:00 AM)16% (Jan 12, 11:00 AM)29.77 "Hg (Jan 20, 3:00 PM)
Average81 °F76%29.89 "Hg
* Reported Midnight between Jan 11 and Jan 12 — Midnight between Jan 26 and Jan 27, Lome, Weather by CustomWeather, © 2014

Note: Actual official high and low records may vary slightly from our data, if they occured in-between our weather recording intervals... More about our weather records

Advertising

Lome weather history for previous 24 hours

 ConditionsComfort  
Time TempWeatherWind HumidityBarometerVisibility
12:00 AM
Jan 27
82 °FPassing clouds.9 mph89%29.89 "HgN/A
11:00 PM
Jan 26
82 °FPassing clouds.12 mph89%29.89 "HgN/A
10:00 PM82 °FPartly cloudy.10 mph89%29.89 "HgN/A
9:00 PM82 °FPassing clouds.9 mph89%29.89 "HgN/A
8:00 PM82 °FPassing clouds.9 mph89%29.89 "HgN/A
7:00 PM82 °FPartly cloudy.10 mph89%29.86 "HgN/A
6:00 PM84 °FBroken clouds.12 mph84%29.86 "HgN/A
5:00 PM84 °FScattered clouds.12 mph84%29.83 "Hg6 mi
4:00 PM86 °FPassing clouds.15 mph79%29.77 "Hg6 mi
3:00 PM90 °FPassing clouds.17 mph71%29.80 "Hg6 mi
2:00 PM90 °FClear.15 mph71%29.83 "Hg6 mi
1:00 PM90 °FPassing clouds.12 mph71%29.86 "HgN/A
12:00 PM90 °FPassing clouds.13 mph67%29.89 "HgN/A
11:00 AM90 °FPassing clouds.13 mph67%29.89 "HgN/A
10:00 AM86 °FPassing clouds.8 mph70%29.92 "HgN/A
9:00 AM84 °FScattered clouds.8 mph79%29.92 "Hg5 mi
8:00 AM81 °FPassing clouds.7 mph94%29.89 "Hg4 mi
7:00 AM81 °FPassing clouds.2 mph94%29.89 "Hg4 mi
6:00 AM81 °FPassing clouds.2 mph94%29.86 "Hg4 mi
5:00 AM81 °FPassing clouds.3 mph94%29.83 "Hg5 mi
4:00 AM81 °FPassing clouds.6 mph94%29.83 "Hg5 mi
3:00 AM81 °FPassing clouds.5 mph94%29.83 "HgN/A
2:00 AM81 °FPassing clouds.3 mph94%29.83 "HgN/A
1:00 AM81 °FPassing clouds.5 mph94%29.86 "HgN/A
Weather by CustomWeather, © 2014

See weather overviewHow to use our weather pages